Regional Weather Roundup
Issued by NWS Little Rock, AR

Home | Current Version | Previous Version | Graphics & Text | Print | Product List | Glossary On
Versions: 1 2 3 4 5 6 7 8 9 10 11 12 13 14 15 16 17 18 19 20 21 22 23 24 25 26 27 28 29 30 31 32 33 34 35 36 37 38 39 40 41 42 43 44 45 46 47 48 49 50
000
ASUS44 KLZK 291003
RWRLZK
ARKANSAS STATE WEATHER ROUNDUP
NATIONAL WEATHER SERVICE LITTLE ROCK AR
ISSUED BY NATIONAL WEATHER SERVICE MEMPHIS TN
400 AM CST MON DEC 29 2014

NOTE: "FAIR" INDICATES FEW OR NO CLOUDS BELOW 12,000 FEET WITH NO
SIGNIFICANT WEATHER AND/OR OBSTRUCTIONS TO VISIBILITY.

ARZ001-003-010-029-291100-
NORTHWEST ARKANSAS

CITY           SKY/WX    TMP DP  RH WIND       PRES   REMARKS
FORT SMITH     PTCLDY    29  27  92 E3        30.19S
HARRISON       CLEAR     22  20  92 CALM      30.17S
BENTONVILLE    PTCLDY    27  21  80 E3        30.16S
ROGERS         PTCLDY    23  22  96 E5        30.17R WCI  17
SILOAM SPGS    PTCLDY    27  18  69 E3        30.17S
HIGHFILL       CLEAR     24  22  91 CALM      30.16S
$$

ARZ004-005-016-291100-
NORTH CENTRAL ARKANSAS

CITY           SKY/WX    TMP DP  RH WIND       PRES   REMARKS
BATESVILLE     CLOUDY    34  27  75 CALM      30.21R
FLIPPIN        PTCLDY    21  18  86 CALM      30.19F
MTN HOME       PTCLDY    25  23  92 CALM      30.18F
$$

ARZ040-041-291100-
WEST CENTRAL ARKANSAS

CITY           SKY/WX    TMP DP  RH WIND       PRES   REMARKS
MOUNT IDA      CLOUDY    28  27  96 CALM      30.15S FOG
$$

ARZ017-025-026-028-291100-
NORTHEAST ARKANSAS

CITY           SKY/WX    TMP DP  RH WIND       PRES   REMARKS
JONESBORO      CLOUDY    34  29  82 NE8       30.21F WCI  27
NEWPORT        CLOUDY    34  30  85 NE9       30.22F WCI  27
WALNUT RIDGE   CLOUDY    34  25  69 NE8       30.21F WCI  27
BLYTHEVILLE    CLOUDY    35  31  85 N13       30.20F WCI  26
$$

ARZ022-033-042-044-291100-
CENTRAL ARKANSAS

CITY           SKY/WX    TMP DP  RH WIND       PRES   REMARKS
LITTLE ROCK    CLOUDY    37  31  78 N6        30.20S WCI  32
JACKSONVILLE   CLOUDY    35  31  85 N7        30.19S WCI  29
SEARCY         CLOUDY    35  29  78 NE8       30.22S WCI  29
HOT SPRINGS    CLEAR     28  26  92 CALM      30.17F
RUSSELLVILLE   CLEAR     26  23  88 CALM      30.19S
$$

ARZ036-291100-
EAST ARKANSAS

CITY           SKY/WX    TMP DP  RH WIND       PRES   REMARKS
WEST MEMPHIS   CLOUDY    36  35  96 N9        30.17F WCI  29
$$

ARZ050-070-073-291100-
SOUTHWEST ARKANSAS

CITY           SKY/WX    TMP DP  RH WIND       PRES   REMARKS
TEXARKANA      CLOUDY    38  36  92 E6        30.16S WCI  33
EL DORADO      CLOUDY    39  37  92 N6        30.16S FOG     WCI  35
DEQUEEN        CLOUDY    31  31 100 CALM      30.16F
$$

ARZ056-057-069-291100-
SOUTHEAST ARKANSAS

CITY           SKY/WX    TMP DP  RH WIND       PRES   REMARKS
PINE BLUFF     CLOUDY    38  34  85 N9        30.18S WCI  31
STUTTGART      CLOUDY    37  30  75 NE14      30.19S WCI  29
MONTICELLO     CLOUDY    40  37  89 N5        30.16R FOG
$$



USA.gov is the U.S. government's official web portal to all federal, state and local government web resources and services.